TimePDT,TemperatureF,Dew PointF,Humidity,Sea Level PressureIn,VisibilityMPH,Wind Direction,Wind SpeedMPH,Gust SpeedMPH,PrecipitationIn,Events,Conditions,WindDirDegrees,DateUTC
12:54 AM,60.1,48.9,67,29.74,10.0,SSW,6.9,-,N/A,,Clear,210,2013-06-02 07:54:00
1:54 AM,61.0,48.0,62,29.74,10.0,SW,10.4,-,N/A,,Clear,220,2013-06-02 08:54:00
2:54 AM,59.0,48.0,67,29.73,10.0,SSW,6.9,-,N/A,,Clear,210,2013-06-02 09:54:00
3:54 AM,57.9,48.0,70,29.73,10.0,South,6.9,-,N/A,,Clear,190,2013-06-02 10:54:00
4:54 AM,55.9,48.9,77,29.73,10.0,SSW,3.5,-,N/A,,Clear,210,2013-06-02 11:54:00
5:54 AM,54.0,48.9,83,29.74,10.0,Calm,Calm,-,N/A,,Clear,0,2013-06-02 12:54:00
6:54 AM,57.9,51.1,78,29.75,10.0,SW,5.8,-,N/A,,Clear,230,2013-06-02 13:54:00
7:54 AM,61.0,51.1,70,29.75,10.0,SW,6.9,-,N/A,,Clear,220,2013-06-02 14:54:00
8:54 AM,64.0,50.0,60,29.75,10.0,SW,6.9,-,N/A,,Clear,220,2013-06-02 15:54:00
9:54 AM,66.0,51.1,59,29.74,10.0,SSW,6.9,-,N/A,,Clear,200,2013-06-02 16:54:00
10:54 AM,71.1,52.0,51,29.73,10.0,SSW,5.8,-,N/A,,Clear,210,2013-06-02 17:54:00
11:54 AM,72.0,52.0,49,29.72,10.0,SSW,10.4,-,N/A,,Clear,210,2013-06-02 18:54:00
12:54 PM,73.9,53.1,48,29.70,10.0,SSW,9.2,-,N/A,,Clear,200,2013-06-02 19:54:00
1:54 PM,77.0,53.1,43,29.68,10.0,SSW,11.5,-,N/A,,Clear,200,2013-06-02 20:54:00
2:54 PM,75.9,53.1,45,29.67,10.0,SSW,13.8,-,N/A,,Clear,200,2013-06-02 21:54:00
3:54 PM,77.0,52.0,42,29.66,10.0,South,15.0,-,N/A,,Clear,190,2013-06-02 22:54:00
4:54 PM,73.0,52.0,48,29.65,10.0,South,18.4,21.9,N/A,,Clear,180,2013-06-02 23:54:00
5:54 PM,69.1,52.0,54,29.64,10.0,South,17.3,24.2,N/A,,Clear,180,2013-06-03 00:54:00
6:54 PM,64.0,52.0,65,29.64,10.0,South,15.0,21.9,N/A,,Clear,190,2013-06-03 01:54:00
7:54 PM,59.0,51.1,75,29.65,9.0,South,17.3,-,N/A,,Clear,180,2013-06-03 02:54:00
8:54 PM,57.0,51.1,81,29.68,9.0,South,8.1,-,N/A,,Clear,190,2013-06-03 03:54:00
9:54 PM,55.9,50.0,80,29.70,9.0,South,10.4,-,N/A,,Clear,180,2013-06-03 04:54:00
10:54 PM,55.0,51.1,86,29.71,9.0,SSW,9.2,-,N/A,,Partly Cloudy,200,2013-06-03 05:54:00
11:41 PM,53.6,50.0,88,29.73,8.0,SW,3.5,-,N/A,,Partly Cloudy,220,2013-06-03 06:41:00
11:54 PM,54.0,50.0,86,29.71,8.0,Calm,Calm,-,N/A,,Mostly Cloudy,0,2013-06-03 06:54:00